Location: *
(41.3833°S, 177.8333°W)
Time: 21:20:42
(UTC+00:00)

Cosmos 2333 Rocket - Pass Details

Date: 01 April 2020
Orbit: 841 x 861 km, 70.8° (Epoch: 31 May)

Event Time Altitude Azimuth Distance (km) Brightness Sun altitude
Rises 17:12:26 0° 333° (NNW) 3,413 5.1 -11.2°
Reaches altitude 10° 17:14:52 10° 330° (NNW) 2,488 4.3 -10.8°
Maximum altitude 17:20:36 74° 245° (WSW) 902 2.2 -9.7°
Drops below altitude 10° 17:26:26 10° 159° (SSE) 2,528 5.0 -8.6°
Sets 17:28:56 0° 157° (SSE) 3,473 5.7 -8.1°
